Regional Weather Roundup
Issued by NWS Cleveland, OH

Home | Current Version | Previous Version | Graphics & Text | Print | Product List | Glossary On
Versions: 1 2 3 4 5 6 7 8 9 10 11 12 13 14 15 16 17 18 19 20 21 22 23 24 25 26 27 28 29 30 31 32 33 34 35 36 37 38 39 40 41 42 43 44 45 46 47 48 49 50
000
ASUS41 KCLE 221410
RWRCLE
OHIO REGIONAL WEATHER ROUNDUP
NATIONAL WEATHER SERVICE WILMINGTON, OH
900 AM EST THU FEB 22 2018

NOTE: "FAIR" INDICATES FEW OR NO CLOUDS BELOW 12,000 FEET WITH NO
SIGNIFICANT WEATHER AND/OR OBSTRUCTIONS TO VISIBILITY.

OHZ001>008-015>018-024>027-034-035-043-044-221500-
   NORTHWEST OHIO

CITY           SKY/WX    TMP DP  RH WIND       PRES   REMARKS
DEFIANCE       FRZ RAIN  31  27  85 NE8       30.58R FOG     WCI  23
FINDLAY        PTSUNNY   34  28  79 NE15G24   30.47S WCI  24
TOLEDO EXPRESS MIX PCPN  32  29  88 NE12      30.57R WCI  23
TOLEDO EXEC    CLOUDY    32  27  81 NE12G24   30.55R WCI  23
LIMA           CLOUDY    33  32  96 N10       30.49R WCI  25
$$

OHZ009>014-019>023-028>033-038-089-221500-
   NORTHEAST OHIO

CITY           SKY/WX    TMP DP  RH WIND       PRES   REMARKS
CLE-HOPKINS    LGT RAIN  34  31  88 E9        30.56S WCI  27
CLE-LAKEFRONT  LGT RAIN  35  30  82 E7        30.54S WCI  29
CUY CO. ARPT   LGT SNOW  34  32  93 E14       30.54F WCI  24
LORAIN-ELYRIA  FRZ RAIN  32  27  81 E9        30.52F WCI  24
ASHTABULA      LGT SNOW  33  32  96 SE7       30.55F FOG     WCI  27
AKRON-CANTON   LGT RAIN  35  30  82 NE14      30.48F WCI  26
WOOSTER        LGT RAIN  34  32  92 NE12      30.51R WCI  25
MANSFIELD      MIX PCPN  33  32  96 E10       30.47S WCI  25
YOUNGSTOWN     RAIN      34  32  92 E12       30.52F FOG     WCI  25
$$

OHZ042-051>053-060>062-070>072-077>081-221500-
  SOUTHWEST OHIO

CITY           SKY/WX    TMP DP  RH WIND       PRES   REMARKS
CINC-COVINGTON CLOUDY    40  40 100 E18G28    30.33S
CINC-LUNKEN    CLOUDY    42  39  89 E13G23    30.37F
HAMILTON       CLOUDY    41  31  67 E15G28    30.36F
DAYTON         CLOUDY    37  37 100 NE10G25   30.40R
WRIGHT-PAT AFB CLOUDY    38  34  88 E18G25    30.34F
DAYTON GENERAL FAIR      40  35  83 E17G31    30.32F
WILMINGTON     LGT RAIN  38  37  97 E18G33    30.31F
$$

OHZ036-037-039>041-045>050-054>059-063>069-073>076-082>088-221500-
  CENTRAL AND SOUTHEAST OHIO

CITY           SKY/WX    TMP DP  RH WIND       PRES   REMARKS
COLUMBUS       LGT RAIN  38  36  92 NE10      30.44R
OSU AIRPORT    LGT RAIN  37  36  96 NE12      30.44F
BOLTON FIELD   RAIN      37  36  93 NE8       30.45R
RICKENBACK AFB LGT RAIN  37  37  98 NE16      30.44R
NEWARK         LGT RAIN  37  34  89 VRB7      30.44S
MARION         LGT RAIN  34  32  92 E16       30.45F WCI  24
LANCASTER      LGT RAIN  39  36  89 NE12G22   30.44R
ZANESVILLE     LGT RAIN  40  36  86 N8        30.45R FOG
NEW PHILLY     CLOUDY    38  34  85 E8        30.48R
$$




USA.gov is the U.S. government's official web portal to all federal, state and local government web resources and services.